Year,Month,Day,Hour,Minute,Value (Times are PST for barometer in hPa)
2020,03,12,00,00,1042.33
2020,03,12,00,01,1042.33
2020,03,12,00,02,1042.33
2020,03,12,00,03,1042.36
2020,03,12,00,04,1042.40
2020,03,12,00,05,1042.40
2020,03,12,00,06,1042.40
2020,03,12,00,07,1042.40
2020,03,12,00,08,1042.40
2020,03,12,00,09,1042.40
2020,03,12,00,10,1042.40
2020,03,12,00,11,1042.36
2020,03,12,00,12,1042.47
2020,03,12,00,13,1042.43
2020,03,12,00,14,1042.47
2020,03,12,00,15,1042.47
2020,03,12,00,16,1042.50
2020,03,12,00,17,1042.50
2020,03,12,00,18,1042.53
2020,03,12,00,19,1042.50
2020,03,12,00,20,1042.53
2020,03,12,00,21,1042.57
2020,03,12,00,22,1042.53
2020,03,12,00,23,1042.57
2020,03,12,00,24,1042.57
2020,03,12,00,25,1042.60
2020,03,12,00,26,1042.60
2020,03,12,00,27,1042.64
2020,03,12,00,28,1042.67
2020,03,12,00,29,1042.67
2020,03,12,00,30,1042.67
2020,03,12,00,31,1042.74
2020,03,12,00,32,1042.70
2020,03,12,00,33,1042.70
2020,03,12,00,34,1042.74
2020,03,12,00,35,1042.67
2020,03,12,00,36,1042.70
2020,03,12,00,37,1042.70
2020,03,12,00,38,1042.80
2020,03,12,00,39,1042.77
2020,03,12,00,40,1042.84
2020,03,12,00,41,1042.87
2020,03,12,00,42,1042.87
2020,03,12,00,43,1042.87
2020,03,12,00,44,1042.91
2020,03,12,00,45,1042.87
2020,03,12,00,46,1042.87
2020,03,12,00,47,1042.87
2020,03,12,00,48,1042.84
2020,03,12,00,49,1042.87
2020,03,12,00,50,1042.84
2020,03,12,00,51,1042.87
2020,03,12,00,52,1042.87
2020,03,12,00,53,1042.97
2020,03,12,00,54,1042.94
2020,03,12,00,55,1042.97
2020,03,12,00,56,1042.97
2020,03,12,00,57,1043.01
2020,03,12,00,58,1043.04
2020,03,12,00,59,1043.01
2020,03,12,01,00,1043.01
2020,03,12,01,01,1043.04
2020,03,12,01,02,1043.04
2020,03,12,01,03,1043.04
2020,03,12,01,04,1043.08
2020,03,12,01,05,1043.11
2020,03,12,01,06,1043.11
2020,03,12,01,07,1043.14
2020,03,12,01,08,1043.11
2020,03,12,01,09,1043.14
2020,03,12,01,10,1043.14
2020,03,12,01,11,1043.18
2020,03,12,01,12,1043.18
2020,03,12,01,13,1043.21
2020,03,12,01,14,1043.21
2020,03,12,01,15,1043.25
2020,03,12,01,16,1043.25
2020,03,12,01,17,1043.25
2020,03,12,01,18,1043.28
2020,03,12,01,19,1043.31
2020,03,12,01,20,1043.31
2020,03,12,01,21,1043.35
2020,03,12,01,22,1043.38
2020,03,12,01,23,1043.35
2020,03,12,01,24,1043.38
2020,03,12,01,25,1043.38
2020,03,12,01,26,1043.41
2020,03,12,01,27,1043.41
2020,03,12,01,28,1043.45
2020,03,12,01,29,1043.41
2020,03,12,01,30,1043.48
2020,03,12,01,31,1043.48
2020,03,12,01,32,1043.55
2020,03,12,01,33,1043.58
2020,03,12,01,34,1043.58
2020,03,12,01,35,1043.62
2020,03,12,01,36,1043.65
2020,03,12,01,37,1043.62
2020,03,12,01,38,1043.69
2020,03,12,01,39,1043.69
2020,03,12,01,40,1043.62
2020,03,12,01,41,1043.65
2020,03,12,01,42,1043.69
2020,03,12,01,43,1043.69
2020,03,12,01,44,1043.69
2020,03,12,01,45,1043.72
2020,03,12,01,46,1043.72
2020,03,12,01,47,1043.75
2020,03,12,01,48,1043.72
2020,03,12,01,49,1043.69
2020,03,12,01,50,1043.72
2020,03,12,01,51,1043.72
2020,03,12,01,52,1043.75
2020,03,12,01,53,1043.75
2020,03,12,01,54,1043.72
2020,03,12,01,55,1043.79
2020,03,12,01,56,1043.82
2020,03,12,01,57,1043.82
2020,03,12,01,58,1043.85
2020,03,12,01,59,1043.82
2020,03,12,02,00,1043.85
2020,03,12,02,01,1043.96
2020,03,12,02,02,1043.96
2020,03,12,02,03,1043.99
2020,03,12,02,04,1044.02
2020,03,12,02,05,1044.06
2020,03,12,02,06,1044.09
2020,03,12,02,07,1044.09
2020,03,12,02,08,1044.06
2020,03,12,02,09,1044.09
2020,03,12,02,10,1044.09
2020,03,12,02,11,1044.06
2020,03,12,02,12,1044.06
2020,03,12,02,13,1044.16
2020,03,12,02,14,1044.16
2020,03,12,02,15,1044.13
2020,03,12,02,16,1044.16
2020,03,12,02,17,1044.23
2020,03,12,02,18,1044.23
2020,03,12,02,19,1044.26
2020,03,12,02,20,1044.19
2020,03,12,02,21,1044.23
2020,03,12,02,22,1044.23
2020,03,12,02,23,1044.23
2020,03,12,02,24,1044.26
2020,03,12,02,25,1044.29
2020,03,12,02,26,1044.26
2020,03,12,02,27,1044.29
2020,03,12,02,28,1044.33
2020,03,12,02,29,1044.33
2020,03,12,02,30,1044.40
2020,03,12,02,31,1044.46
2020,03,12,02,32,1044.46
2020,03,12,02,33,1044.43
2020,03,12,02,34,1044.46
2020,03,12,02,35,1044.50
2020,03,12,02,36,1044.46
2020,03,12,02,37,1044.50
2020,03,12,02,38,1044.57
2020,03,12,02,39,1044.50
2020,03,12,02,40,1044.57
2020,03,12,02,41,1044.53
2020,03,12,02,42,1044.60
2020,03,12,02,43,1044.63
2020,03,12,02,44,1044.63
2020,03,12,02,45,1044.67
2020,03,12,02,46,1044.74
2020,03,12,02,47,1044.74
2020,03,12,02,48,1044.77
2020,03,12,02,49,1044.74
2020,03,12,02,50,1044.77
2020,03,12,02,51,1044.80
2020,03,12,02,52,1044.87
2020,03,12,02,53,1044.87
2020,03,12,02,54,1044.87
2020,03,12,02,55,1044.90
2020,03,12,02,56,1044.90
2020,03,12,02,57,1044.94
2020,03,12,02,58,1045.01
2020,03,12,02,59,1044.97
2020,03,12,03,00,1044.97
2020,03,12,03,01,1045.04
2020,03,12,03,02,1045.01
2020,03,12,03,03,1044.97
2020,03,12,03,04,1045.04
2020,03,12,03,05,1045.07
2020,03,12,03,06,1045.07
2020,03,12,03,07,1045.04
2020,03,12,03,08,1045.04
2020,03,12,03,09,1045.04
2020,03,12,03,10,1045.07
2020,03,12,03,11,1045.07
2020,03,12,03,12,1045.07
2020,03,12,03,13,1045.11
2020,03,12,03,14,1045.11
2020,03,12,03,15,1045.07
2020,03,12,03,16,1045.07
2020,03,12,03,17,1045.11
2020,03,12,03,18,1045.11
2020,03,12,03,19,1045.14
2020,03,12,03,20,1045.21
2020,03,12,03,21,1045.21
2020,03,12,03,22,1045.28
2020,03,12,03,23,1045.31
2020,03,12,03,24,1045.34
2020,03,12,03,25,1045.38
2020,03,12,03,26,1045.41
2020,03,12,03,27,1045.45
2020,03,12,03,28,1045.45
2020,03,12,03,29,1045.41
2020,03,12,03,30,1045.45
2020,03,12,03,31,1045.41
2020,03,12,03,32,1045.48
2020,03,12,03,33,1045.45
2020,03,12,03,34,1045.51
2020,03,12,03,35,1045.55
2020,03,12,03,36,1045.55
2020,03,12,03,37,1045.58
2020,03,12,03,38,1045.58
2020,03,12,03,39,1045.58
2020,03,12,03,40,1045.65
2020,03,12,03,41,1045.65
2020,03,12,03,42,1045.65
2020,03,12,03,43,1045.65
2020,03,12,03,44,1045.65
2020,03,12,03,45,1045.72
2020,03,12,03,46,1045.75
2020,03,12,03,47,1045.82
2020,03,12,03,48,1045.85
2020,03,12,03,49,1045.92
2020,03,12,03,50,1045.89
2020,03,12,03,51,1045.89
2020,03,12,03,52,1045.92
2020,03,12,03,53,1045.95
2020,03,12,03,54,1045.99
2020,03,12,03,55,1046.02
2020,03,12,03,56,1046.02
2020,03,12,03,57,1046.06
2020,03,12,03,58,1046.09
2020,03,12,03,59,1046.06
2020,03,12,04,00,1046.02
2020,03,12,04,01,1046.09
2020,03,12,04,02,1046.16
2020,03,12,04,03,1046.16
2020,03,12,04,04,1046.16
2020,03,12,04,05,1046.16
2020,03,12,04,06,1046.26
2020,03,12,04,07,1046.23
2020,03,12,04,08,1046.26
2020,03,12,04,09,1046.23
2020,03,12,04,10,1046.26
2020,03,12,04,11,1046.29
2020,03,12,04,12,1046.29
2020,03,12,04,13,1046.36
2020,03,12,04,14,1046.33
2020,03,12,04,15,1046.36
2020,03,12,04,16,1046.39
2020,03,12,04,17,1046.39
2020,03,12,04,18,1046.43
2020,03,12,04,19,1046.46
2020,03,12,04,20,1046.43
2020,03,12,04,21,1046.46
2020,03,12,04,22,1046.46
2020,03,12,04,23,1046.50
2020,03,12,04,24,1046.50
2020,03,12,04,25,1046.50
2020,03,12,04,26,1046.50
2020,03,12,04,27,1046.53
2020,03,12,04,28,1046.53
2020,03,12,04,29,1046.56
2020,03,12,04,30,1046.56
2020,03,12,04,31,1046.63
2020,03,12,04,32,1046.67
2020,03,12,04,33,1046.67
2020,03,12,04,34,1046.67
2020,03,12,04,35,1046.73
2020,03,12,04,36,1046.67
2020,03,12,04,37,1046.70
2020,03,12,04,38,1046.70
2020,03,12,04,39,1046.73
2020,03,12,04,40,1046.77
2020,03,12,04,41,1046.77
2020,03,12,04,42,1046.77
2020,03,12,04,43,1046.83
2020,03,12,04,44,1046.83
2020,03,12,04,45,1046.87
2020,03,12,04,46,1046.87
2020,03,12,04,47,1046.94
2020,03,12,04,48,1046.97
2020,03,12,04,49,1047.00
2020,03,12,04,50,1047.04
2020,03,12,04,51,1047.04
2020,03,12,04,52,1047.04
2020,03,12,04,53,1047.07
2020,03,12,04,54,1047.07
2020,03,12,04,55,1047.07
2020,03,12,04,56,1047.07
2020,03,12,04,57,1047.11
2020,03,12,04,58,1047.11
2020,03,12,04,59,1047.11
2020,03,12,05,00,1047.07
2020,03,12,05,01,1047.17
2020,03,12,05,02,1047.21
2020,03,12,05,03,1047.17
2020,03,12,05,04,1047.17
2020,03,12,05,05,1047.27
2020,03,12,05,06,1047.27
2020,03,12,05,07,1047.31
2020,03,12,05,08,1047.34
2020,03,12,05,09,1047.38
2020,03,12,05,10,1047.41
2020,03,12,05,11,1047.41
2020,03,12,05,12,1047.41
2020,03,12,05,13,1047.41
2020,03,12,05,14,1047.41
2020,03,12,05,15,1047.44
2020,03,12,05,16,1047.48
2020,03,12,05,17,1047.48
2020,03,12,05,18,1047.51
2020,03,12,05,19,1047.58
2020,03,12,05,20,1047.55
2020,03,12,05,21,1047.55
2020,03,12,05,22,1047.58
2020,03,12,05,23,1047.58
2020,03,12,05,24,1047.61
2020,03,12,05,25,1047.61
2020,03,12,05,26,1047.58
2020,03,12,05,27,1047.61
2020,03,12,05,28,1047.61
2020,03,12,05,29,1047.65
2020,03,12,05,30,1047.75
2020,03,12,05,31,1047.78
2020,03,12,05,32,1047.82
2020,03,12,05,33,1047.82
2020,03,12,05,34,1047.85
2020,03,12,05,35,1047.85
2020,03,12,05,36,1047.85
2020,03,12,05,37,1047.85
2020,03,12,05,38,1047.92
2020,03,12,05,39,1047.92
2020,03,12,05,40,1047.99
2020,03,12,05,41,1047.99
2020,03,12,05,42,1047.99
2020,03,12,05,43,1047.99
2020,03,12,05,44,1048.05
2020,03,12,05,45,1048.12
2020,03,12,05,46,1048.22
2020,03,12,05,47,1048.22
2020,03,12,05,48,1048.22
2020,03,12,05,49,1048.26
2020,03,12,05,50,1048.26
2020,03,12,05,51,1048.26
2020,03,12,05,52,1048.26
2020,03,12,05,53,1048.26
2020,03,12,05,54,1048.26
2020,03,12,05,55,1048.22
2020,03,12,05,56,1048.22
2020,03,12,05,57,1048.16
2020,03,12,05,58,1048.19
2020,03,12,05,59,1048.19
2020,03,12,06,00,1048.22
2020,03,12,06,01,1048.26
2020,03,12,06,02,1048.29
2020,03,12,06,03,1048.32
2020,03,12,06,04,1048.36
2020,03,12,06,05,1048.43
2020,03,12,06,06,1048.46
2020,03,12,06,07,1048.43
2020,03,12,06,08,1048.46
2020,03,12,06,09,1048.46
2020,03,12,06,10,1048.46
2020,03,12,06,11,1048.46
2020,03,12,06,12,1048.46
2020,03,12,06,13,1048.46
2020,03,12,06,14,1048.49
2020,03,12,06,15,1048.49
2020,03,12,06,16,1048.49
2020,03,12,06,17,1048.46
2020,03,12,06,18,1048.43
2020,03,12,06,19,1048.46
2020,03,12,06,20,1048.49
2020,03,12,06,21,1048.49
2020,03,12,06,22,1048.53
2020,03,12,06,23,1048.56
2020,03,12,06,24,1048.66
2020,03,12,06,25,1048.66
2020,03,12,06,26,1048.70
2020,03,12,06,27,1048.73
2020,03,12,06,28,1048.73
2020,03,12,06,29,1048.66
2020,03,12,06,30,1048.70
2020,03,12,06,31,1048.76
2020,03,12,06,32,1048.87
2020,03,12,06,33,1048.87
2020,03,12,06,34,1048.93
2020,03,12,06,35,1049.00
2020,03,12,06,36,1049.07
2020,03,12,06,37,1049.10
2020,03,12,06,38,1049.17
2020,03,12,06,39,1049.21
2020,03,12,06,40,1049.21
2020,03,12,06,41,1049.24
2020,03,12,06,42,1049.24
2020,03,12,06,43,1049.24
2020,03,12,06,44,1049.31
2020,03,12,06,45,1049.34
2020,03,12,06,46,1049.27
2020,03,12,06,47,1049.27
2020,03,12,06,48,1049.31
2020,03,12,06,49,1049.31
2020,03,12,06,50,1049.34
2020,03,12,06,51,1049.34
2020,03,12,06,52,1049.31
2020,03,12,06,53,1049.34
2020,03,12,06,54,1049.34
2020,03,12,06,55,1049.41
2020,03,12,06,56,1049.37
2020,03,12,06,57,1049.41
2020,03,12,06,58,1049.37
2020,03,12,06,59,1049.34
2020,03,12,07,00,1049.37
2020,03,12,07,01,1049.34
2020,03,12,07,02,1049.41
2020,03,12,07,03,1049.37
2020,03,12,07,04,1049.37
2020,03,12,07,05,1049.44
2020,03,12,07,06,1049.48
2020,03,12,07,07,1049.48
2020,03,12,07,08,1049.48
2020,03,12,07,09,1049.48
2020,03,12,07,10,1049.51
2020,03,12,07,11,1049.48
2020,03,12,07,12,1049.44
2020,03,12,07,13,1049.51
2020,03,12,07,14,1049.54
2020,03,12,07,15,1049.58
2020,03,12,07,16,1049.58
2020,03,12,07,17,1049.54
2020,03,12,07,18,1049.54
2020,03,12,07,19,1049.54
2020,03,12,07,20,1049.58
2020,03,12,07,21,1049.58
2020,03,12,07,22,1049.61
2020,03,12,07,23,1049.65
2020,03,12,07,24,1049.61
2020,03,12,07,25,1049.65
2020,03,12,07,26,1049.68
2020,03,12,07,27,1049.68
2020,03,12,07,28,1049.68
2020,03,12,07,29,1049.71
2020,03,12,07,30,1049.71
2020,03,12,07,31,1049.71
2020,03,12,07,32,1049.71
2020,03,12,07,33,1049.71
2020,03,12,07,34,1049.68
2020,03,12,07,35,1049.71
2020,03,12,07,36,1049.68
2020,03,12,07,37,1049.71
2020,03,12,07,38,1049.81
2020,03,12,07,39,1049.85
2020,03,12,07,40,1049.85
2020,03,12,07,41,1049.95
2020,03,12,07,42,1049.88
2020,03,12,07,43,1049.98
2020,03,12,07,44,1049.98
2020,03,12,07,45,1049.98
2020,03,12,07,46,1049.98
2020,03,12,07,47,1049.98
2020,03,12,07,48,1050.02
2020,03,12,07,49,1050.09
2020,03,12,07,50,1050.12
2020,03,12,07,51,1050.15
2020,03,12,07,52,1050.19
2020,03,12,07,53,1050.19
2020,03,12,07,54,1050.19
2020,03,12,07,55,1050.19
2020,03,12,07,56,1050.15
2020,03,12,07,57,1050.15
2020,03,12,07,58,1050.22
2020,03,12,07,59,1050.22
2020,03,12,08,00,1050.22
2020,03,12,08,01,1050.19
2020,03,12,08,02,1050.02
2020,03,12,08,03,1050.12
2020,03,12,08,04,1050.32
2020,03,12,08,05,1050.39
2020,03,12,08,06,1050.46
2020,03,12,08,07,1050.39
2020,03,12,08,08,1050.46
2020,03,12,08,09,1050.49
2020,03,12,08,10,1050.42
2020,03,12,08,11,1050.42
2020,03,12,08,12,1050.49
2020,03,12,08,13,1050.46
2020,03,12,08,14,1050.53
2020,03,12,08,15,1050.56
2020,03,12,08,16,1050.59
2020,03,12,08,17,1050.56
2020,03,12,08,18,1050.56
2020,03,12,08,19,1050.53
2020,03,12,08,20,1050.53
2020,03,12,08,21,1050.59
2020,03,12,08,22,1050.59
2020,03,12,08,23,1050.56
2020,03,12,08,24,1050.53
2020,03,12,08,25,1050.49
2020,03,12,08,26,1050.56
2020,03,12,08,27,1050.56
2020,03,12,08,28,1050.56
2020,03,12,08,29,1050.63
2020,03,12,08,30,1050.59
2020,03,12,08,31,1050.66
2020,03,12,08,32,1050.63
2020,03,12,08,33,1050.66
2020,03,12,08,34,1050.70
2020,03,12,08,35,1050.73
2020,03,12,08,36,1050.76
2020,03,12,08,37,1050.80
2020,03,12,08,38,1050.83
2020,03,12,08,39,1050.90
2020,03,12,08,40,1050.93
2020,03,12,08,41,1050.93
2020,03,12,08,42,1050.93
2020,03,12,08,43,1050.97
2020,03,12,08,44,1051.00
2020,03,12,08,45,1051.03
2020,03,12,08,46,1051.07
2020,03,12,08,47,1051.10
2020,03,12,08,48,1051.10
2020,03,12,08,49,1051.07
2020,03,12,08,50,1051.20
2020,03,12,08,51,1051.20
2020,03,12,08,52,1051.27
2020,03,12,08,53,1051.30
2020,03,12,08,54,1051.37
2020,03,12,08,55,1051.37
2020,03,12,08,56,1051.41
2020,03,12,08,57,1051.41
2020,03,12,08,58,1051.41
2020,03,12,08,59,1051.41
2020,03,12,09,00,1051.41
2020,03,12,09,01,1051.47
2020,03,12,09,02,1051.47
2020,03,12,09,03,1051.47
2020,03,12,09,04,1051.47
2020,03,12,09,05,1051.47
2020,03,12,09,06,1051.51
2020,03,12,09,07,1051.51
2020,03,12,09,08,1051.47
2020,03,12,09,09,1051.47
2020,03,12,09,10,1051.47
2020,03,12,09,11,1051.47
2020,03,12,09,12,1051.54
2020,03,12,09,13,1051.51
2020,03,12,09,14,1051.51
2020,03,12,09,15,1051.61
2020,03,12,09,16,1051.64
2020,03,12,09,17,1051.68
2020,03,12,09,18,1051.68
2020,03,12,09,19,1051.71
2020,03,12,09,20,1051.71
2020,03,12,09,21,1051.71
2020,03,12,09,22,1051.81
2020,03,12,09,23,1051.81
2020,03,12,09,24,1051.85
2020,03,12,09,25,1051.88
2020,03,12,09,26,1051.91
2020,03,12,09,27,1051.95
2020,03,12,09,28,1052.02
2020,03,12,09,29,1052.02
2020,03,12,09,30,1052.08
2020,03,12,09,31,1052.12
2020,03,12,09,32,1052.08
2020,03,12,09,33,1052.15
2020,03,12,09,34,1052.19
2020,03,12,09,35,1052.22
2020,03,12,09,36,1052.25
2020,03,12,09,37,1052.19
2020,03,12,09,38,1052.19
2020,03,12,09,39,1052.15
2020,03,12,09,40,1052.15
2020,03,12,09,41,1052.08
2020,03,12,09,42,1052.15
2020,03,12,09,43,1052.15
2020,03,12,09,44,1052.15
2020,03,12,09,45,1052.15
2020,03,12,09,46,1052.08
2020,03,12,09,47,1052.12
2020,03,12,09,48,1052.15
2020,03,12,09,49,1052.12
2020,03,12,09,50,1052.15
2020,03,12,09,51,1052.25
2020,03,12,09,52,1052.25
2020,03,12,09,53,1052.25
2020,03,12,09,54,1052.25
2020,03,12,09,55,1052.22
2020,03,12,09,56,1052.22
2020,03,12,09,57,1052.25
2020,03,12,09,58,1052.22
2020,03,12,09,59,1052.19
2020,03,12,10,00,1052.19
2020,03,12,10,01,1052.15
2020,03,12,10,02,1052.15
2020,03,12,10,03,1052.12
2020,03,12,10,04,1052.08
2020,03,12,10,05,1052.05
2020,03,12,10,06,1052.02
2020,03,12,10,07,1051.95
2020,03,12,10,08,1051.98
2020,03,12,10,09,1052.02
2020,03,12,10,10,1052.02
2020,03,12,10,11,1052.02
2020,03,12,10,12,1051.98
2020,03,12,10,13,1051.98
2020,03,12,10,14,1051.95
2020,03,12,10,15,1051.95
2020,03,12,10,16,1051.91
2020,03,12,10,17,1051.95
2020,03,12,10,18,1051.91
2020,03,12,10,19,1051.95
2020,03,12,10,20,1051.91
2020,03,12,10,21,1051.95
2020,03,12,10,22,1051.95
2020,03,12,10,23,1051.95
2020,03,12,10,24,1051.95
2020,03,12,10,25,1052.02
2020,03,12,10,26,1052.05
2020,03,12,10,27,1052.15
2020,03,12,10,28,1052.25
2020,03,12,10,29,1052.32
2020,03,12,10,30,1052.39
2020,03,12,10,31,1052.39
2020,03,12,10,32,1052.42
2020,03,12,10,33,1052.39
2020,03,12,10,34,1052.39
2020,03,12,10,35,1052.39
2020,03,12,10,36,1052.39
2020,03,12,10,37,1052.32
2020,03,12,10,38,1052.35
2020,03,12,10,39,1052.39
2020,03,12,10,40,1052.46
2020,03,12,10,41,1052.49
2020,03,12,10,42,1052.56
2020,03,12,10,43,1052.59
2020,03,12,10,44,1052.56
2020,03,12,10,45,1052.59
2020,03,12,10,46,1052.59
2020,03,12,10,47,1052.63
2020,03,12,10,48,1052.73
2020,03,12,10,49,1052.76
2020,03,12,10,50,1052.83
2020,03,12,10,51,1052.90
2020,03,12,10,52,1052.96
2020,03,12,10,53,1053.03
2020,03,12,10,54,1053.10
2020,03,12,10,55,1053.07
2020,03,12,10,56,1053.07
2020,03,12,10,57,1053.03
2020,03,12,10,58,1053.07
2020,03,12,10,59,1053.03
2020,03,12,11,00,1053.03
2020,03,12,11,01,1053.00
2020,03,12,11,02,1053.03
2020,03,12,11,03,1053.03
2020,03,12,11,04,1053.07
2020,03,12,11,05,1053.13
2020,03,12,11,06,1053.13
2020,03,12,11,07,1053.13
2020,03,12,11,08,1053.13
2020,03,12,11,09,1053.13
2020,03,12,11,10,1053.10
2020,03,12,11,11,1053.07
2020,03,12,11,12,1053.07
2020,03,12,11,13,1053.07
2020,03,12,11,14,1053.07
2020,03,12,11,15,1053.10
2020,03,12,11,16,1053.20
2020,03,12,11,17,1053.24
2020,03,12,11,18,1053.27
2020,03,12,11,19,1053.30
2020,03,12,11,20,1053.37
2020,03,12,11,21,1053.34
2020,03,12,11,22,1053.34
2020,03,12,11,23,1053.34
2020,03,12,11,24,1053.30
2020,03,12,11,25,1053.34
2020,03,12,11,26,1053.34
2020,03,12,11,27,1053.40
2020,03,12,11,28,1053.37
2020,03,12,11,29,1053.37
2020,03,12,11,30,1053.34
2020,03,12,11,31,1053.30
2020,03,12,11,32,1053.20
2020,03,12,11,33,1053.20
2020,03,12,11,34,1053.17
2020,03,12,11,35,1053.13
2020,03,12,11,36,1053.13
2020,03,12,11,37,1053.13
2020,03,12,11,38,1053.20
2020,03,12,11,39,1053.17
2020,03,12,11,40,1053.24
2020,03,12,11,41,1053.27
2020,03,12,11,42,1053.17
2020,03,12,11,43,1053.13
2020,03,12,11,44,1053.07
2020,03,12,11,45,1053.07
2020,03,12,11,46,1053.03
2020,03,12,11,47,1053.03
2020,03,12,11,48,1053.00
2020,03,12,11,49,1053.00
2020,03,12,11,50,1052.96
2020,03,12,11,51,1052.90
2020,03,12,11,52,1052.90
2020,03,12,11,53,1052.86
2020,03,12,11,54,1052.83
2020,03,12,11,55,1052.83
2020,03,12,11,56,1052.83
2020,03,12,11,57,1052.86
2020,03,12,11,58,1052.93
2020,03,12,11,59,1052.86
2020,03,12,12,00,1052.90
2020,03,12,12,01,1052.93
2020,03,12,12,02,1052.96
2020,03,12,12,03,1052.93
2020,03,12,12,04,1052.90
2020,03,12,12,05,1052.90
2020,03,12,12,06,1052.93
2020,03,12,12,07,1052.93
2020,03,12,12,08,1052.96
2020,03,12,12,09,1053.03
2020,03,12,12,10,1053.03
2020,03,12,12,11,1053.03
2020,03,12,12,12,1053.07
2020,03,12,12,13,1053.07
2020,03,12,12,14,1053.10
2020,03,12,12,15,1053.03
2020,03,12,12,16,1053.00
2020,03,12,12,17,1052.96
2020,03,12,12,18,1053.03
2020,03,12,12,19,1053.07
2020,03,12,12,20,1052.96
2020,03,12,12,21,1052.93
2020,03,12,12,22,1052.93
2020,03,12,12,23,1052.93
2020,03,12,12,24,1052.93
2020,03,12,12,25,1052.93
2020,03,12,12,26,1052.90
2020,03,12,12,27,1052.86
2020,03,12,12,28,1052.83
2020,03,12,12,29,1052.83
2020,03,12,12,30,1052.83
2020,03,12,12,31,1052.86
2020,03,12,12,32,1052.90
2020,03,12,12,33,1052.90
2020,03,12,12,34,1052.90
2020,03,12,12,35,1052.93
2020,03,12,12,36,1052.96
2020,03,12,12,37,1053.00
2020,03,12,12,38,1053.00
2020,03,12,12,39,1053.00
2020,03,12,12,40,1052.93
2020,03,12,12,41,1052.93
2020,03,12,12,42,1052.86
2020,03,12,12,43,1052.83
2020,03,12,12,44,1052.79
2020,03,12,12,45,1052.79
2020,03,12,12,46,1052.69
2020,03,12,12,47,1052.63
2020,03,12,12,48,1052.59
2020,03,12,12,49,1052.56
2020,03,12,12,50,1052.56
2020,03,12,12,51,1052.52
2020,03,12,12,52,1052.56
2020,03,12,12,53,1052.56
2020,03,12,12,54,1052.52
2020,03,12,12,55,1052.49
2020,03,12,12,56,1052.52
2020,03,12,12,57,1052.49
2020,03,12,12,58,1052.56
2020,03,12,12,59,1052.49
2020,03,12,13,00,1052.56
2020,03,12,13,01,1052.52
2020,03,12,13,02,1052.49
2020,03,12,13,03,1052.63
2020,03,12,13,04,1052.59
2020,03,12,13,05,1052.59
2020,03,12,13,06,1052.63
2020,03,12,13,07,1052.63
2020,03,12,13,08,1052.63
2020,03,12,13,09,1052.52
2020,03,12,13,10,1052.49
2020,03,12,13,11,1052.46
2020,03,12,13,12,1052.46
2020,03,12,13,13,1052.49
2020,03,12,13,14,1052.46
2020,03,12,13,15,1052.49
2020,03,12,13,16,1052.56
2020,03,12,13,17,1052.59
2020,03,12,13,18,1052.56
2020,03,12,13,19,1052.63
2020,03,12,13,20,1052.59
2020,03,12,13,21,1052.56
2020,03,12,13,22,1052.49
2020,03,12,13,23,1052.39
2020,03,12,13,24,1052.35
2020,03,12,13,25,1052.32
2020,03,12,13,26,1052.32
2020,03,12,13,27,1052.32
2020,03,12,13,28,1052.29
2020,03,12,13,29,1052.29
2020,03,12,13,30,1052.32
2020,03,12,13,31,1052.32
2020,03,12,13,32,1052.32
2020,03,12,13,33,1052.32
2020,03,12,13,34,1052.39
2020,03,12,13,35,1052.49
2020,03,12,13,36,1052.56
2020,03,12,13,37,1052.59
2020,03,12,13,38,1052.69
2020,03,12,13,39,1052.76
2020,03,12,13,40,1052.76
2020,03,12,13,41,1052.76
2020,03,12,13,42,1052.73
2020,03,12,13,43,1052.69
2020,03,12,13,44,1052.69
2020,03,12,13,45,1052.76
2020,03,12,13,46,1052.73
2020,03,12,13,47,1052.76
2020,03,12,13,48,1052.79
2020,03,12,13,49,1052.76
2020,03,12,13,50,1052.79
2020,03,12,13,51,1052.86
2020,03,12,13,52,1052.83
2020,03,12,13,53,1052.79
2020,03,12,13,54,1052.79
2020,03,12,13,55,1052.76
2020,03,12,13,56,1052.73
2020,03,12,13,57,1052.79
2020,03,12,13,58,1052.79
2020,03,12,13,59,1052.83
2020,03,12,14,00,1052.73
2020,03,12,14,01,1052.73
2020,03,12,14,02,1052.73
2020,03,12,14,03,1052.73
2020,03,12,14,04,1052.69
2020,03,12,14,05,1052.79
2020,03,12,14,06,1052.83
2020,03,12,14,07,1052.86
2020,03,12,14,08,1052.90
2020,03,12,14,09,1052.90
2020,03,12,14,10,1052.93
2020,03,12,14,11,1052.90
2020,03,12,14,12,1052.93
2020,03,12,14,13,1052.96
2020,03,12,14,14,1053.00
2020,03,12,14,15,1052.93
2020,03,12,14,16,1053.03
2020,03,12,14,17,1052.96
2020,03,12,14,18,1052.93
2020,03,12,14,19,1053.00
2020,03,12,14,20,1053.03
2020,03,12,14,21,1052.90
2020,03,12,14,22,1052.83
2020,03,12,14,23,1052.79
2020,03,12,14,24,1052.76
2020,03,12,14,25,1052.79
2020,03,12,14,26,1052.90
2020,03,12,14,27,1052.90
2020,03,12,14,28,1052.79
2020,03,12,14,29,1052.96
2020,03,12,14,30,1052.86
2020,03,12,14,31,1052.90
2020,03,12,14,32,1052.90
2020,03,12,14,33,1052.93
2020,03,12,14,34,1052.90
2020,03,12,14,35,1052.90
2020,03,12,14,36,1052.86
2020,03,12,14,37,1052.86
2020,03,12,14,38,1052.86
2020,03,12,14,39,1052.83
2020,03,12,14,40,1052.83
2020,03,12,14,41,1052.79
2020,03,12,14,42,1052.79
2020,03,12,14,43,1052.76
2020,03,12,14,44,1052.73
2020,03,12,14,45,1052.73
2020,03,12,14,46,1052.76
2020,03,12,14,47,1052.76
2020,03,12,14,48,1052.73
2020,03,12,14,49,1052.73
2020,03,12,14,50,1052.73
2020,03,12,14,51,1052.76
2020,03,12,14,52,1052.73
2020,03,12,14,53,1052.69
2020,03,12,14,54,1052.69
2020,03,12,14,55,1052.73
2020,03,12,14,56,1052.66
2020,03,12,14,57,1052.63
2020,03,12,14,58,1052.52
2020,03,12,14,59,1052.63
2020,03,12,15,00,1052.59
2020,03,12,15,01,1052.56
2020,03,12,15,02,1052.56
2020,03,12,15,03,1052.59
2020,03,12,15,04,1052.59
2020,03,12,15,05,1052.69
2020,03,12,15,06,1052.73
2020,03,12,15,07,1052.63
2020,03,12,15,08,1052.56
2020,03,12,15,09,1052.52
2020,03,12,15,10,1052.52
2020,03,12,15,11,1052.46
2020,03,12,15,12,1052.39
2020,03,12,15,13,1052.29
2020,03,12,15,14,1052.32
2020,03,12,15,15,1052.25
2020,03,12,15,16,1052.35
2020,03,12,15,17,1052.29
2020,03,12,15,18,1052.29
2020,03,12,15,19,1052.25
2020,03,12,15,20,1052.25
2020,03,12,15,21,1052.22
2020,03,12,15,22,1052.15
2020,03,12,15,23,1052.19
2020,03,12,15,24,1052.15
2020,03,12,15,25,1052.15
2020,03,12,15,26,1052.12
2020,03,12,15,27,1052.08
2020,03,12,15,28,1052.19
2020,03,12,15,29,1052.19
2020,03,12,15,30,1052.19
2020,03,12,15,31,1052.22
2020,03,12,15,32,1052.22
2020,03,12,15,33,1052.25
2020,03,12,15,34,1052.22
2020,03,12,15,35,1052.29
2020,03,12,15,36,1052.29
2020,03,12,15,37,1052.29
2020,03,12,15,38,1052.29
2020,03,12,15,39,1052.25
2020,03,12,15,40,1052.39
2020,03,12,15,41,1052.39
2020,03,12,15,42,1052.39
2020,03,12,15,43,1052.39
2020,03,12,15,44,1052.42
2020,03,12,15,45,1052.42
2020,03,12,15,46,1052.42
2020,03,12,15,47,1052.35
2020,03,12,15,48,1052.39
2020,03,12,15,49,1052.35
2020,03,12,15,50,1052.29
2020,03,12,15,51,1052.35
2020,03,12,15,52,1052.25
2020,03,12,15,53,1052.22
2020,03,12,15,54,1052.22
2020,03,12,15,55,1052.22
2020,03,12,15,56,1052.19